TimeAKST,TemperatureF,Dew PointF,Humidity,Sea Level PressureIn,VisibilityMPH,Wind Direction,Wind SpeedMPH,Gust SpeedMPH,PrecipitationIn,Events,Conditions,WindDirDegrees,DateUTC
12:18 AM,45.0,39.9,82,29.33,6.0,ESE,16.1,-,0.04,Rain,Rain,110,2013-12-12 09:18:00
12:53 AM,45.0,39.9,82,29.33,7.0,ESE,17.3,-,0.09,Rain,Rain,110,2013-12-12 09:53:00
1:53 AM,45.0,39.9,82,29.33,9.0,ESE,19.6,-,0.07,Rain,Light Rain,110,2013-12-12 10:53:00
3:53 AM,44.1,39.9,85,29.33,8.0,East,9.2,-,0.09,Rain,Rain,100,2013-12-12 12:53:00
4:53 AM,44.1,39.9,85,29.34,7.0,East,10.4,-,0.08,Rain,Light Rain,100,2013-12-12 13:53:00
5:53 AM,44.1,39.0,82,29.35,6.0,East,12.7,-,0.07,Rain,Light Rain,100,2013-12-12 14:53:00
6:53 AM,43.0,39.9,89,29.35,8.0,ESE,12.7,-,0.09,Rain,Light Rain,110,2013-12-12 15:53:00
7:53 AM,44.1,39.0,82,29.36,8.0,ESE,15.0,-,0.02,Rain,Light Rain,110,2013-12-12 16:53:00
8:53 AM,44.1,37.9,79,29.38,2.5,SE,12.7,-,0.01,Rain,Light Rain,140,2013-12-12 17:53:00
9:13 AM,44.1,39.0,82,29.38,1.5,SE,10.4,-,0.01,Rain,Light Rain,130,2013-12-12 18:13:00
9:53 AM,43.0,41.0,93,29.41,1.0,South,9.2,-,0.10,Rain,Heavy Rain,180,2013-12-12 18:53:00
9:59 AM,43.0,41.0,93,29.41,2.5,South,11.5,-,0.02,Rain,Light Rain,170,2013-12-12 18:59:00
10:01 AM,43.0,41.0,93,29.42,3.0,South,12.7,18.4,0.03,Rain,Light Rain,180,2013-12-12 19:01:00
10:26 AM,43.0,39.9,89,29.45,5.0,WSW,15.0,-,0.07,Rain,Light Rain,250,2013-12-12 19:26:00
10:53 AM,42.1,39.0,89,29.48,2.5,NW,13.8,-,0.13,Rain,Light Rain,320,2013-12-12 19:53:00
11:01 AM,42.1,39.0,89,29.48,3.0,NW,11.5,-,0.01,Rain,Light Rain,320,2013-12-12 20:01:00
11:10 AM,41.0,39.0,93,29.49,1.8,NW,10.4,-,0.03,Rain,Rain,310,2013-12-12 20:10:00
11:30 AM,39.9,37.9,93,29.50,2.0,North,5.8,-,0.07,Rain,Rain,350,2013-12-12 20:30:00
11:38 AM,39.9,37.9,93,29.50,3.0,Calm,Calm,-,0.08,Rain,Light Rain,0,2013-12-12 20:38:00
11:53 AM,39.9,37.9,93,29.52,3.0,NNW,4.6,-,0.08,Rain,Light Rain,340,2013-12-12 20:53:00
12:00 PM,39.9,37.9,93,29.52,2.0,NNW,5.8,-,0.01,Rain,Light Rain,340,2013-12-12 21:00:00
12:09 PM,39.9,37.9,93,29.52,1.5,NE,4.6,-,0.02,Rain,Light Rain,50,2013-12-12 21:09:00
12:13 PM,39.9,37.9,93,29.52,6.0,Calm,Calm,-,0.02,Rain,Light Rain,0,2013-12-12 21:13:00
12:31 PM,39.9,39.0,97,29.53,10.0,SE,4.6,-,0.02,,Overcast,130,2013-12-12 21:31:00
12:53 PM,39.9,37.9,93,29.55,7.0,SE,5.8,-,0.03,Rain,Light Rain,130,2013-12-12 21:53:00
1:11 PM,39.9,39.0,97,29.55,7.0,ESE,5.8,-,0.01,Rain,Light Rain,110,2013-12-12 22:11:00
1:26 PM,39.9,39.0,97,29.56,4.0,East,4.6,-,0.01,Rain,Light Rain,90,2013-12-12 22:26:00
1:38 PM,39.9,39.0,97,29.56,6.0,NE,5.8,-,0.03,Rain,Light Rain,50,2013-12-12 22:38:00
1:53 PM,39.9,37.9,93,29.57,6.0,East,4.6,-,0.03,,Overcast,100,2013-12-12 22:53:00
2:53 PM,42.1,37.0,82,29.60,10.0,West,12.7,-,0.02,Rain,Light Rain,260,2013-12-12 23:53:00
2:58 PM,42.1,37.0,82,29.60,9.0,West,11.5,-,0.00,Rain,Light Rain,280,2013-12-12 23:58:00
3:33 PM,41.0,36.0,82,29.62,10.0,West,10.4,16.1,0.00,,Overcast,280,2013-12-13 00:33:00
3:53 PM,41.0,35.1,79,29.62,10.0,West,10.4,16.1,0.00,,Overcast,280,2013-12-13 00:53:00
4:53 PM,41.0,35.1,79,29.66,10.0,NW,9.2,-,0.00,Rain,Light Rain,310,2013-12-13 01:53:00
5:00 PM,39.9,35.1,83,29.66,10.0,Calm,Calm,-,0.00,,Overcast,0,2013-12-13 02:00:00
5:53 PM,41.0,34.0,76,29.69,10.0,WNW,11.5,-,0.00,,Overcast,290,2013-12-13 02:53:00
6:53 PM,37.9,36.0,93,29.72,10.0,East,5.8,-,N/A,,Overcast,90,2013-12-13 03:53:00
7:53 PM,37.9,35.1,89,29.73,10.0,East,5.8,-,N/A,,Overcast,100,2013-12-13 04:53:00
8:51 PM,37.4,35.6,93,29.76,10.0,East,4.6,-,N/A,,Overcast,80,2013-12-13 05:51:00
8:53 PM,37.9,35.1,89,29.76,10.0,East,4.6,-,N/A,,Overcast,80,2013-12-13 05:53:00
9:01 PM,37.9,35.1,89,29.77,10.0,East,5.8,-,N/A,,Overcast,80,2013-12-13 06:01:00
9:34 PM,37.9,35.1,89,29.77,10.0,East,6.9,-,N/A,,Overcast,90,2013-12-13 06:34:00
9:53 PM,37.9,34.0,86,29.78,10.0,East,5.8,-,N/A,,Overcast,100,2013-12-13 06:53:00
10:53 PM,39.0,34.0,82,29.78,10.0,ESE,9.2,-,N/A,,Overcast,110,2013-12-13 07:53:00
11:53 PM,39.9,35.1,83,29.79,10.0,ESE,11.5,-,N/A,,Overcast,120,2013-12-13 08:53:00